NISAR

Last updated on Sat Aug 30 2025 00:02:06 GMT+0000 (Coordinated Universal Time)

1 65053U 25163A 25241.23879579 .00000359 00000+0 11377-3 0 9998 2 65053 98.4443 67.9768 0014225 174.6647 185.4698 14.45711205 4291

Satellite not in orbit

NISAR